 また、F1キー・セットアップの中のローカルタイムの設定(GMT -9)をし忘れ
 たので、画像では 1420Z や 1421Z と表示されていますが、これは日本時間
 の 1420JST と 1421JST のことなので訂正して見て下さい。

 なお、この画像の中で 1421JSTのラインに「くびれ」が見えますが、それは
 ちょうど「ザザーー」という音のテレメトリビーコンが発信された時です。

 ところで このプログラムのドキュメントファイルを読んでいて、「FFTDSP」
 が 「Fast Fourier Transforms Digital Signal Processing」であることを
 知りました。「高速フーリエ変換デジタル信号処理プログラム」という EME
 の微弱信号を検出する目的のプログラムだそうです。

 JN1GKZ/新井さんによる CQ誌4〜6号の解説記事を参考に、このプログラムの
 使い方をさらに研究して、いろいろな実験に臨みたいと思います。
 
  「jamsat−bb:4489」FO−29mailbox at May 24でmailboxの運用状況を
   レポートされてましたので転載させて頂きました.

 本日(5月24日 13:23JST)の衛星FO-29のパスにおいて、JN1GKZ/新井さん
 の登録メールの内容を確認しました。 以下、その時のLOGの抜粋です。
 (435.904MHz USB 1200bps)

  8J1JCS>JJ1ZUT [05/24/99  13:23:32] <I C P S0 R4>:
   No.  Date  UTC    To    From   Size   Subject
  0001 05/22 04:22 ALL    JN1GKZ      75 hello

  8J1JCS>JJ1ZUT [05/24/99  13:23:38] <RR C P R4>
  8J1JCS>JJ1ZUT [05/24/99  13:23:39] <I C P S1 R4>:hello
  Greetings from Tokyo.
  Enjoy FO-29 JD mode.
  73s
  JN1GKZ  Masa   PM95RR

  8J1JCS>JJ1ZUT [05/24/99  13:23:45] <RR C P R4>
  8J1JCS>JJ1ZUT [05/24/99  13:23:47] <I C P S1 R4>:hello
  Greetings from Tokyo.
  Enjoy FO-29 JD mode.
  73s
  JN1GKZ  Masa   PM95RR

  8J1JCS>JJ1ZUT [05/24/99  13:23:49] <I C P S2 R4>:
  JAS2>
  8J1JCS>JJ1ZUT [05/24/99  13:23:54] <RR C P R4>
  8J1JCS>JJ1ZUT [05/24/99  13:23:56] <I C P S2 R4>:
  JAS2>
  8J1JCS>JJ1ZUT [05/24/99  13:24:01] <RR R F R5>
  8J1JCS>JJ1ZUT [05/24/99  13:24:01] <D C P>
  8J1JCS>BEACON [05/24/99  13:24:36] <UI C>:
  JAS-2    '97/05/24 04:21:33
  9C 03 63 08 00 01 00 00 00 00
  00 00 5E 61 E4 93 5F 93 90 B0
  AA 52 A8 02 CD B4 B7 B7 B4 B6

 ----------------------------------------------
 Name : JE9PEL/1 脇田
 Mail : je9pel@jamsat.or.jp
 URL  : http://www.ne.jp/asahi/hamradio/je9pel/
 QTH  : Yokohama, Japan
 Date : 24 May. 1999
 ----------------------------------------------
==============================================================================
  4)FO−20(ふじ2号)のCWテレメトリは5月10日(月)18:27(JST)の
     パスではテレメトリーが単一トーンの連続音から唸りを伴った連続音、さらにゆらぎの
     ある信号になり、いままでより若干信号が弱くなっていました.

 -----------------------------  FO - 20 軌道要素 ----------------------------------
 ■ 軌道要素1 :出典は「ふじ3号」に同じ. 
  
  FO-20
  1 20480U 90013C   99140.11236447  .00000090  00000-0  27973-3 0 01541
  2 20480 099.0263 340.1764 0539784 228.2288 127.1474 12.83253208434739
 
 ■ 軌道要素2 :出典は「ふじ3号」に同じ.  
               
  Satellite: FO-20
  Catalog number: 20480
  Epoch time:      99140.11236447
  Element set:    0154
  Inclination:      099.0263 deg
  RA of node:       340.1764 deg
  Eccentricity:    0.0539784
  Arg of perigee:   228.2288 deg
  Mean anomaly:     127.1474 deg
  Mean motion:   12.83253208 rev/day
  Decay rate:        9.0e-07 rev/day^2
  Epoch rev:           43473
  Checksum:              300 

  ====================    FO-20のQSOの状況 ==========================
 
  jamsat−bb:4484でJH7IMX局 脇山氏がFO−20で8J7ITU/7を運用され
    た様子をレポートをされていましたので転載させて頂きました. 
  
  8J7ITU/7を運用しているJH7IMX脇山です。

  先程のFO-20のオービットでJA6BX,7J1AEJ/7とQSOできました。
 JA6BXさんとはクロスモードでのQSOになってしまいましたが.. hi.
 7K4IINさんからもメイルにて受信レポートをいただきました。
 次のオービットにもQRVしますので、よろしくお相手ください。

  Shunichiro Wakiyama  wakiyama@info.sendai-ct.ac.jp
 
  [jamsat-bb:4486] 8J7ITU においてJA7JZS局 芝山  正登氏が同上のQSOに付いて
    総括レポートをされていましたので転載させて頂きました.
 
  5/15〜23の8J7ITUの運用が終了しました。
  皆様のご協力ありがとうございました。
  当初JARL東北支部に衛星通信を申し込みした時、
  免許はあるが衛星をやった事がなく、ここの設備で本当にできるのかと思われたようですが、
  東北支部長から快諾いただきました。
  既に、脇山さん(JH7IMX)からも報告がありましたが、
  AO-27,FO-20でおよそ20局と交信できました。
  また、設備、地理上の問題で受信状態が良くないにもかかわらず、
  お呼び掛け頂ながら交信に至らなかった各局さんには申し訳有りませんでした。
  次回、宜しくお願いします。
  QSLカードは、全てJARL経由で発送されます。
  最初から、設備上、地理上の問題があることは承知していましたが、
  運用して、通常設備でも衛星通信ができることが運用メンバーにPRできたのではないかと思って
  いま す。
   また、今回の運用では、川野部さん(JG7PSJ)が興味を持ち、
  運用に加わってもらい衛星入門者1名が誕生しました。
  彼は、衛星が初めての経験でした。
  今回の8J7ITUは、予定外の臨時活動でしたが、皆様のご協力ありがとうございました。
  今回の衛星運用では、
  JARL東北支部長はじめ、事務局長、尾形さん(JA7AJH)、佐藤さん(JA7UQB)、若生さん(JH7QLR)、
  川野部さん(JG7PSJ)他 8J7ITU局の運用委員の皆さんに大変お世話になりました。
  お礼申し上げます。
  1999/5/24         .・
          芝山  正登
        ja7jzs@jamsat.or.jp
   =====================================================================

 5)JARL のホームページに新しい運用追加予定が記載されていましたのでご紹介します.
       ( http://www.jarl.or.jp/Japanese/3_Fuji/uy.htm )

        ■ ふじ3号/FO−29 ■  
  
  ふじ3号(JAS−2) 運用予定      
  
 ☆☆デジトーカ運用を4月30日〜5月10日に運用☆☆ 

  *** 運用日程について ***
     
   5月17日 〜 5月24日     デジタル系1200bpsメールボックス運用
   5月24日 〜 5月31日     アナログ系運用

  *** 運用日程の変更について ***

 ☆4月28日からのデジトーカ運用は音声データのアップリンクが混信等の影響を受け
  てデータがUPしませんので予定を変更して,デジトーカ運用は4月30日から5月10日迄
   行うことと致します。

 ☆4月30日から5月6日に行うデジトーカ運用の音声送信メッセージは新データUP予定ですので
   お楽しみ下さい。

     ※運用日程の変更についても詳しく閲覧できるようになっていますので参照下さい.

        ■ ふじ2号/FO−20 ■      
            「ふじ2号」 現況                                                                                               
   JAS-1b/FO-20(ふじ2号)の不具合発生について
    JAS-1b(ふじ2号)のCWテレメトリ信号に,1997年10月12日12時
 (JST)の日本上空通過時,3桁の数字が繰り返されるはずが3個の長音の
  繰り返しとなっているという異常が発見されました。この不具合は次の通過時
  からは回復していましたが13日15時20分の通過時に再び観測されました。
  衛星のアナログ系中継モード動作は異常が無く,正常時のテレメトリ内容からは
  衛星の動作に異常は認められません。従って,直ちに衛星のミッションに影響す
  ることは無いと予想されますので,当面はアナログ系中継モードを継続します。
  衛星は既に打ち上げてから7年8ヶ月を経ておりますので,今後は監視を強化す
  る予定です。アマチュア各位のレポートをお待ちします.   
  
  以上  http://www.jarl.or.jp/Japanese/3_Fuji/fuji.htm
                                           
   =============   JAS-2 (ふじ3号)と現在までの情報   ===========
  
  A.電話によるふじ3号の運用情報
      社団法人日本アマチュア連盟によるサービス
           TEL .   03− 3942 − 1000
  B.アマチュア無線FAXサービス
      JARLによるふじ3号の軌道情報(オービットカレンダー)
         FAX No.  03− 3233 −0055
  C.WWWブラウザで情報を簡単に見れる人のためにJAS−2
     ふじ3号の衛星としての運用されるまでの名前)の概要、打ち上げ
     までの状況、運用中における状況を説明したホームページを紹介し
     ておきます.
     社団法人日本アマチュア無線連盟(JARL)のホームページ

          http://www.jarl.or.jp/Japanese/3_Fuji
 
     宇宙開発事業団(NASDA)ホームページ 
          http://www.nasda.go.jp/
         打上げ衛星 :地球観測プラットフォーム技術衛星(ADEOS) 
                       アマチュア衛星3号(JAS-2)
          http://yyy.tksc.nasda.go.jp/Home/Press/Press-j/jas-2_j.html        

  D.JAMSATによる軌道情報の活用
        JAMSATのホームページまたはjamsat−kepsの軌道要素より
      衛星の軌道情報を得る.
     JAMSATホームページ
               URL    http://www.jamsat.or.jp
       上記ホームページでは各地で行われるアマチュア通信衛星に関する
      ミューティングのお知らせや世界のアマチュア衛星に関する情報が
      満載されています.
   
 =========================================================================
       JAMSATのメンバーのご協力によりJH6MME(高山 秀造)が
    執筆・編集を担当しております.ご指摘の意見、疑問やこのようにしたら
    というアイデアがありましたら小さなことでもかまいませんので気軽に下
    記アドレスまでご連絡ください.jamsat−newsからjas2
    infoへの転載をJH4PHW局坂井さんに担当して頂いております.
                    E-mail : jh6mme@jamsat.or.jp : jh4phw@jamsat.or.jp
 ===============================   END  ===============================